Temp
65 66 67 67 67 67 68 68 67 67 68 67 67 68 67 69 70 70 71 70 69 69 70 70 70 70 69 70 69 69 69 69 69 69 69 69 69 69 68 67 66 65 65 64 62 61 60 58 58 57 57 54
63 64 66 66 66 66 67 66 66 66 66 66 66 65 67 68 68 68 68 68 68 68 69 68 68 67 68 69 69 69 69 69 69 69 69 69 69 68 68 66 66 65 63 62 61 60 59 57 57 56 56 53
62 62 64 64 64 65 65 65 65 65 65 64 64 64 66 66 66 65 66 65 65 66 66 65 66 65 67 68 69 69 69 69 68 68 68 68 68 68 67 65 64 63 62 61 60 59 58 57 56 55 54 53
61 61 61 62 63 63 63 63 63 63 62 62 62 63 63 64 62 63 63 64 61 61 62 63 62 63 66 68 68 68 68 68 68 68 68 68 68 67 65 64 63 62 61 60 59 58 56 55 54 52 52 51
61 61 61 61 62 62 62 62 61 61 60 60 60 61 61 61 57 56 56 56 56 59 58 60 61 61 64 67 67 67 68 67 67 67 67 67 66 64 63 62 61 60 59 59 58 56 55 53 51 50 50 50
60 60 60 61 61 61 62 61 59 58 58 58 59 59 57 56 54 53 53 54 54 54 55 57 60 60 62 65 67 67 67 66 67 67 66 66 65 62 60 59 54 54 56 56 55 54 53 51 49 48 48 48
59 59 59 60 60 60 59 57 57 57 57 58 58 56 55 55 54 53 53 52 53 54 57 56 58 59 61 62 65 64 65 64 64 64 64 62 60 58 57 52 50 50 50 52 54 52 50 49 48 48 47 47
59 59 59 59 59 57 57 57 56 56 56 57 56 55 54 54 53 52 52 53 52 52 50 51 55 56 57 58 58 59 59 60 60 60 60 58 56 53 50 48 48 48 49 49 48 48 48 48 47 47 47 46
59 59 59 58 58 57 56 55 55 54 54 54 54 54 54 52 52 51 50 50 50 49 49 49 49 50 50 50 51 53 49 50 51 51 50 50 49 47 47 47 48 49 48 47 47 47 47 47 47 46 46 45
58 58 57 56 56 55 55 54 54 53 53 52 52 51 51 51 50 50 49 49 49 48 49 48 48 48 49 50 50 51 49 49 49 48 48 48 47 45 47 47 47 48 47 46 47 46 46 46 45 45 44 45
57 57 56 56 55 54 53 53 53 52 51 51 51 51 52 51 49 49 49 48 48 47 48 48 48 48 49 49 49 50 49 47 47 47 47 47 46 45 46 46 46 47 46 47 46 45 45 45 44 44 43 44
55 55 55 55 53 54 53 52 51 51 50 51 50 52 51 51 51 49 49 48 47 47 48 47 48 49 49 49 48 49 48 47 46 46 46 46 45 45 45 45 44 45 46 46 46 44 44 44 43 43 42 42
53 53 53 53 53 52 52 52 51 50 50 50 50 51 51 50 49 48 48 47 46 47 46 47 47 48 48 48 47 48 47 47 45 44 44 44 44 43 43 43 43 43 44 45 45 45 43 43 43 42 42 41
52 52 52 52 52 52 51 51 51 51 50 50 50 49 50 51 49 48 47 46 46 46 46 46 47 47 47 47 47 47 45 45 45 42 41 42 42 43 43 42 42 43 42 43 43 43 43 42 41 41 41 40
51 51 51 51 51 51 51 50 50 50 50 49 49 49 49 49 49 48 47 47 46 46 45 47 47 45 46 46 46 46 44 44 44 43 42 42 41 42 42 41 41 42 41 41 41 41 42 39 40 40 40 39
51 50 50 50 50 50 50 50 50 49 49 48 48 49 48 48 48 48 47 47 46 46 46 46 47 46 46 45 44 45 45 43 43 42 40 40 40 40 41 40 40 41 41 39 39 39 39 38 38 37 38 38
50 50 50 49 49 49 49 49 48 48 48 48 47 48 48 47 47 47 47 46 45 45 46 47 46 46 45 45 44 44 44 43 42 42 41 39 39 39 40 40 38 39 39 39 37 37 36 36 37 36 37 37
49 49 49 49 49 48 48 48 48 47 47 47 47 47 47 47 47 46 46 46 45 44 45 46 46 46 44 44 44 43 44 43 43 42 41 39 39 39 39 39 38 38 36 36 37 36 34 34 33 34 36 35
48 48 48 48 48 47 47 47 47 47 47 47 46 46 46 46 46 46 46 46 46 44 44 45 45 44 43 44 44 44 44 43 42 42 40 40 37 34 35 36 36 36 36 36 36 35 34 34 33 34 34 33
47 47 47 47 46 47 46 46 46 46 47 46 46 46 46 46 45 46 46 45 45 44 43 44 43 43 43 43 44 43 43 43 42 40 39 38 38 36 33 36 34 34 35 35 34 33 33 33 34 33 33 33
45 46 46 46 46 46 46 45 45 45 45 46 46 45 45 45 45 45 45 45 44 43 43 42 42 42 42 43 43 42 42 42 41 40 39 36 36 38 34 33 33 34 34 34 34 33 32 32 33 33 33 33
44 44 44 44 44 45 45 45 44 44 44 44 44 44 44 44 44 44 44 44 43 42 42 41 40 40 41 42 42 41 40 39 39 40 40 37 35 36 35 32 34 33 33 34 33 33 32 32 31 31 31 32
44 44 44 44 43 43 43 43 43 44 43 43 43 43 44 43 43 43 43 43 42 41 39 39 39 39 39 40 40 40 38 37 37 37 38 39 35 35 33 34 34 34 33 33 32 32 30 30 30 30 32 31
41 42 42 41 42 42 41 41 41 42 41 41 41 42 43 43 42 42 43 42 40 39 38 37 37 37 38 38 38 38 37 36 37 37 37 37 37 35 33 32 32 32 33 32 31 31 31 30 30 30 32 31
39 38 39 40 39 39 39 39 39 39 39 40 40 41 42 42 42 42 42 42 41 39 38 37 36 35 35 37 38 38 38 37 36 37 37 35 35 35 33 31 31 33 35 35 33 32 30 30 29 31 33 31
39 38 38 38 38 38 37 37 37 37 37 37 38 39 40 40 41 41 41 41 41 40 38 36 35 35 35 36 36 36 36 36 35 35 35 35 35 34 35 32 31 33 37 35 35 32 31 31 32 32 32 32
38 38 38 38 37 37 36 37 37 37 37 38 37 37 37 38 40 40 40 40 41 40 39 38 37 35 34 34 35 34 33 34 34 34 34 35 36 33 30 29 30 32 35 32 31 32 33 31 32 34 33 32
39 39 39 38 38 37 37 36 37 38 37 37 37 36 36 35 36 38 38 40 40 39 39 39 38 37 35 34 34 36 35 34 33 33 33 33 34 34 32 29 31 31 31 28 35 30 34 27 26 27 31 32
37 38 38 38 38 38 36 37 36 36 35 35 35 35 34 34 34 35 36 37 37 38 37 38 38 37 36 35 34 35 35 35 35 34 34 34 33 34 34 29 28 31 30 29 33 31 22 20 23 25 28 28
36 36 36 36 35 35 35 35 35 34 34 34 34 34 34 35 35 35 34 34 36 36 36 36 36 36 36 36 35 35 35 34 33 33 33 34 35 34 32 34 28 29 30 28 29 30 25 27 20 20 21 30
35 35 35 36 36 35 34 34 34 34 34 33 33 33 34 33 34 34 34 34 34 35 35 35 35 35 35 35 35 35 35 34 34 34 34 34 34 35 33 32 30 30 30 28 29 26 21 21 18 16 25 23
MSLP
1011.88 1012.12 1012.72 1013.20 1013.72 1013.72 1013.48 1013.48 1013.76 1014.28 1014.44 1014.72 1014.96 1014.96 1015.04 1015.00 1015.12 1015.28 1015.36 1015.68 1016.12 1016.56 1016.76 1016.80 1016.76 1016.92 1017.12 1017.12 1017.32 1017.44 1017.72 1017.88 1018.20 1018.32 1018.48 1018.76 1018.92 1019.12 1019.36 1019.68 1019.88 1020.20 1020.36 1020.60 1020.76 1021.04 1021.32 1021.56 1021.80 1021.84 1022.00 1022.16
1013.16 1012.40 1012.20 1012.52 1012.92 1013.40 1013.44 1013.40 1013.56 1014.04 1014.44 1014.72 1014.80 1015.04 1014.88 1015.04 1015.28 1015.48 1015.56 1015.68 1016.24 1016.84 1016.92 1016.96 1017.04 1017.36 1017.36 1017.44 1017.48 1017.56 1017.80 1018.00 1018.28 1018.40 1018.56 1018.84 1018.96 1019.16 1019.44 1019.76 1020.00 1020.36 1020.72 1020.88 1020.96 1021.20 1021.48 1021.72 1021.96 1022.04 1022.12 1022.44
1013.04 1013.00 1012.64 1012.28 1012.16 1012.64 1013.08 1013.24 1013.52 1013.96 1014.44 1014.72 1014.92 1014.80 1014.84 1015.12 1015.40 1015.64 1015.68 1015.80 1016.40 1016.96 1017.28 1017.32 1017.52 1017.60 1017.60 1017.56 1017.60 1017.72 1017.92 1018.16 1018.40 1018.48 1018.68 1018.92 1019.04 1019.24 1019.60 1019.92 1020.20 1020.56 1020.92 1021.08 1021.12 1021.32 1021.64 1021.84 1022.04 1022.16 1022.32 1022.56
1012.76 1012.80 1012.88 1012.60 1012.20 1012.16 1012.52 1012.92 1013.36 1013.92 1014.32 1014.64 1014.76 1014.72 1014.96 1015.20 1015.48 1015.64 1015.68 1015.92 1016.64 1017.24 1017.48 1017.56 1017.68 1017.84 1017.92 1017.84 1017.84 1017.92 1018.12 1018.28 1018.48 1018.64 1018.76 1018.96 1019.16 1019.52 1019.88 1020.16 1020.40 1020.80 1021.08 1021.24 1021.36 1021.52 1021.80 1022.00 1022.12 1022.32 1022.52 1022.76
1012.52 1012.52 1012.72 1012.68 1012.40 1012.20 1012.32 1012.76 1013.20 1013.88 1014.36 1014.72 1014.56 1014.68 1015.00 1015.20 1015.60 1015.76 1015.88 1016.40 1016.72 1017.28 1017.68 1017.72 1017.76 1018.04 1018.16 1018.08 1018.08 1018.12 1018.24 1018.40 1018.56 1018.76 1018.88 1019.16 1019.48 1019.88 1020.20 1020.44 1020.72 1021.04 1021.24 1021.40 1021.64 1021.76 1021.96 1022.12 1022.28 1022.56 1022.76 1023.00
1012.28 1012.16 1012.24 1012.48 1012.56 1012.48 1012.28 1012.60 1013.48 1014.00 1014.24 1014.60 1014.60 1014.72 1015.08 1015.40 1015.68 1015.84 1016.28 1016.84 1017.08 1017.48 1017.80 1017.88 1017.92 1018.12 1018.24 1018.28 1018.32 1018.32 1018.36 1018.56 1018.68 1018.84 1019.04 1019.28 1019.72 1020.16 1020.56 1020.84 1021.24 1021.44 1021.52 1021.68 1021.92 1022.00 1022.08 1022.32 1022.60 1022.80 1023.00 1023.04
1012.12 1011.88 1011.76 1012.28 1012.48 1012.40 1012.44 1012.56 1013.12 1013.76 1014.36 1014.44 1014.44 1014.52 1015.00 1015.32 1015.64 1015.84 1016.08 1016.72 1017.28 1017.64 1018.00 1018.16 1018.12 1018.24 1018.36 1018.40 1018.52 1018.56 1018.64 1018.84 1019.08 1019.24 1019.40 1019.80 1020.20 1020.56 1020.88 1021.24 1021.56 1021.76 1021.92 1022.04 1022.16 1022.16 1022.32 1022.64 1022.96 1022.96 1022.96 1023.12
1011.88 1011.84 1011.76 1011.88 1012.16 1012.20 1012.16 1012.68 1013.32 1013.44 1013.96 1014.36 1014.28 1014.08 1014.56 1015.04 1015.72 1015.88 1016.20 1016.44 1016.88 1017.64 1018.16 1018.36 1018.44 1018.56 1018.60 1018.72 1018.92 1019.08 1019.32 1019.52 1019.56 1019.72 1019.92 1020.24 1020.56 1020.96 1021.36 1021.52 1021.84 1022.04 1022.24 1022.40 1022.44 1022.60 1022.72 1022.88 1023.12 1022.84 1023.16 1023.32
1011.56 1011.60 1011.72 1011.80 1012.00 1012.20 1012.44 1012.84 1013.20 1013.92 1014.36 1014.68 1014.36 1014.04 1013.96 1014.76 1015.60 1015.96 1016.28 1016.60 1017.00 1017.52 1017.96 1018.32 1018.68 1018.80 1019.12 1019.36 1019.68 1019.76 1020.12 1020.28 1020.36 1020.32 1020.44 1020.80 1021.12 1021.44 1021.68 1021.80 1021.96 1022.16 1022.52 1022.72 1022.80 1022.92 1022.96 1023.04 1023.08 1023.12 1023.36 1023.60
1011.40 1011.52 1011.60 1011.88 1011.84 1012.12 1012.52 1012.88 1013.28 1013.76 1014.28 1014.56 1014.92 1014.56 1014.36 1014.80 1015.56 1016.00 1016.28 1016.64 1017.04 1017.52 1017.88 1018.44 1018.76 1018.92 1019.32 1019.80 1020.24 1020.16 1020.52 1020.72 1020.68 1020.72 1020.80 1021.12 1021.44 1021.72 1021.92 1022.08 1022.12 1022.32 1022.48 1022.88 1023.12 1023.20 1023.20 1023.24 1023.28 1023.28 1023.56 1023.72
1011.52 1011.52 1011.56 1011.68 1011.88 1011.96 1012.56 1012.88 1013.32 1013.92 1014.32 1014.64 1014.68 1014.84 1014.68 1014.88 1015.56 1016.00 1016.24 1016.60 1016.96 1017.44 1017.84 1018.52 1018.84 1018.92 1019.36 1020.12 1020.52 1020.44 1020.60 1021.00 1021.08 1021.00 1021.12 1021.36 1021.68 1021.92 1022.12 1022.36 1022.48 1022.64 1022.72 1022.84 1023.24 1023.48 1023.48 1023.52 1023.56 1023.52 1023.72 1023.80
1011.76 1011.68 1011.72 1011.72 1011.80 1011.96 1012.28 1012.84 1013.44 1013.88 1014.32 1014.64 1014.80 1014.68 1014.88 1015.00 1015.44 1015.88 1016.28 1016.72 1017.20 1017.52 1017.72 1018.48 1018.84 1018.88 1019.56 1020.28 1020.60 1020.68 1020.76 1021.16 1021.48 1021.48 1021.44 1021.56 1021.80 1022.04 1022.32 1022.52 1022.80 1023.00 1023.08 1023.08 1023.36 1023.64 1023.76 1023.80 1023.84 1023.84 1023.88 1023.96
1011.84 1011.92 1011.88 1011.92 1011.92 1012.04 1012.44 1012.88 1013.48 1014.04 1014.52 1014.96 1015.12 1015.08 1015.16 1015.36 1015.72 1016.16 1016.48 1016.84 1017.36 1017.72 1017.92 1018.28 1018.72 1018.88 1019.64 1020.32 1020.72 1020.84 1021.16 1021.24 1021.64 1021.80 1021.76 1021.80 1022.00 1022.24 1022.48 1022.76 1023.08 1023.28 1023.44 1023.36 1023.56 1023.72 1023.96 1024.00 1024.04 1024.12 1024.08 1024.12
1012.64 1012.32 1012.20 1012.32 1012.16 1012.24 1012.36 1012.96 1013.52 1013.88 1014.44 1015.00 1015.12 1015.32 1015.48 1015.60 1015.68 1016.00 1016.40 1016.80 1017.20 1017.44 1017.84 1018.20 1018.76 1019.16 1019.64 1020.28 1020.76 1020.92 1021.28 1021.56 1021.64 1021.96 1022.08 1022.08 1022.16 1022.36 1022.68 1022.92 1023.32 1023.44 1023.64 1023.76 1023.76 1024.00 1024.08 1024.24 1024.28 1024.36 1024.28 1024.36
1013.12 1013.12 1013.08 1012.80 1012.60 1012.52 1012.72 1013.08 1013.52 1014.00 1014.32 1014.68 1015.08 1015.56 1015.76 1015.88 1016.12 1016.40 1016.60 1016.80 1017.12 1017.32 1017.64 1018.04 1018.64 1019.40 1019.80 1020.24 1020.76 1021.00 1021.44 1021.76 1021.88 1022.08 1022.24 1022.28 1022.32 1022.48 1022.76 1023.20 1023.48 1023.64 1023.80 1024.04 1024.04 1024.28 1024.28 1024.48 1024.52 1024.56 1024.64 1024.68
1013.40 1013.68 1013.64 1013.64 1013.36 1013.12 1013.28 1013.48 1013.84 1014.32 1014.72 1015.04 1015.16 1015.32 1015.76 1016.08 1016.44 1016.88 1017.00 1017.00 1017.32 1017.28 1017.64 1018.20 1018.56 1019.20 1019.80 1020.32 1020.80 1021.16 1021.36 1021.80 1022.04 1022.24 1022.52 1022.60 1022.72 1022.88 1022.96 1023.32 1023.64 1023.92 1023.96 1024.20 1024.32 1024.48 1024.60 1024.72 1024.68 1024.76 1024.84 1024.88
1013.80 1013.76 1014.08 1014.04 1013.92 1014.04 1014.08 1013.88 1014.36 1014.76 1015.08 1015.28 1015.48 1015.52 1016.00 1016.48 1016.56 1017.04 1017.36 1017.56 1017.68 1017.72 1017.84 1018.28 1018.72 1019.08 1019.76 1020.36 1020.80 1021.24 1021.36 1021.80 1022.12 1022.36 1022.60 1022.88 1023.00 1023.16 1023.36 1023.56 1023.92 1024.08 1024.40 1024.40 1024.52 1024.76 1024.96 1024.96 1024.92 1025.04 1025.00 1025.08
1014.04 1014.12 1014.20 1014.32 1014.32 1014.48 1014.68 1014.76 1014.48 1014.84 1015.16 1015.44 1015.76 1015.96 1016.48 1016.72 1016.92 1017.28 1017.72 1017.96 1018.16 1018.08 1018.32 1018.56 1018.76 1019.04 1019.80 1020.44 1020.76 1021.16 1021.24 1021.68 1022.08 1022.44 1022.68 1023.04 1023.12 1023.40 1023.56 1023.84 1024.12 1024.08 1024.48 1024.80 1024.84 1024.96 1025.16 1025.20 1025.28 1025.24 1025.16 1025.24
1014.80 1014.28 1014.36 1014.92 1015.00 1015.00 1015.08 1015.08 1015.28 1015.28 1015.20 1015.56 1015.96 1016.48 1016.80 1016.84 1017.12 1017.56 1017.92 1018.24 1018.28 1018.40 1018.52 1018.84 1019.00 1019.16 1019.64 1020.40 1020.76 1021.04 1021.16 1021.48 1022.20 1022.44 1022.76 1022.92 1023.16 1023.68 1023.92 1024.16 1024.36 1024.36 1024.48 1024.64 1024.84 1025.16 1025.32 1025.36 1025.48 1025.44 1025.36 1025.52
1015.32 1015.12 1014.60 1014.52 1015.12 1015.52 1015.56 1015.76 1015.80 1015.96 1015.64 1015.28 1016.04 1016.84 1017.16 1017.12 1017.36 1017.76 1018.04 1018.40 1018.68 1018.76 1018.96 1019.08 1019.24 1019.56 1019.84 1020.20 1020.60 1020.96 1021.28 1021.48 1022.12 1022.60 1022.88 1023.08 1023.00 1023.40 1024.08 1024.16 1024.48 1024.80 1024.76 1024.88 1025.00 1025.40 1025.48 1025.56 1025.64 1025.64 1025.68 1025.64
1015.76 1015.48 1015.44 1015.12 1014.76 1015.20 1015.76 1016.04 1016.24 1016.24 1016.40 1015.76 1016.04 1016.68 1017.16 1017.24 1017.48 1017.88 1018.24 1018.52 1018.84 1018.92 1019.20 1019.48 1019.44 1019.64 1020.16 1020.48 1020.68 1021.08 1021.32 1021.64 1022.12 1022.40 1022.80 1023.20 1023.32 1023.16 1023.80 1024.24 1024.60 1024.96 1025.08 1025.08 1025.28 1025.44 1025.52 1025.64 1025.68 1025.76 1025.92 1025.96
1016.16 1016.00 1015.84 1015.80 1015.68 1015.28 1015.12 1015.64 1016.16 1016.44 1016.80 1016.84 1016.44 1016.76 1017.04 1017.20 1017.48 1017.80 1018.32 1018.76 1018.96 1019.12 1019.20 1019.52 1019.76 1019.72 1019.96 1020.48 1020.68 1021.16 1021.56 1022.00 1022.28 1022.36 1022.52 1023.12 1023.52 1023.60 1023.76 1024.36 1024.56 1024.92 1025.28 1025.36 1025.40 1025.52 1025.64 1025.76 1025.88 1026.00 1026.04 1026.12
1016.64 1016.44 1016.20 1016.08 1016.16 1016.16 1016.28 1016.00 1015.84 1016.44 1016.84 1017.44 1017.08 1017.08 1017.12 1017.24 1017.60 1017.84 1018.12 1018.64 1019.00 1019.32 1019.52 1019.68 1019.84 1020.00 1020.32 1020.44 1020.72 1021.16 1021.80 1022.20 1022.44 1022.60 1022.76 1022.84 1023.56 1023.96 1024.12 1024.20 1024.56 1024.92 1025.32 1025.44 1025.60 1025.64 1025.80 1025.88 1025.96 1026.16 1026.20 1026.20
1017.32 1017.08 1016.92 1016.72 1016.56 1016.64 1016.80 1017.20 1016.80 1016.48 1016.92 1017.36 1017.44 1017.40 1017.28 1017.40 1017.68 1018.00 1018.08 1018.24 1018.84 1019.32 1019.56 1019.80 1020.00 1020.12 1020.36 1020.64 1020.96 1021.32 1021.84 1022.32 1022.44 1022.48 1022.76 1023.16 1023.36 1023.88 1024.40 1024.84 1025.04 1025.20 1025.20 1025.60 1025.64 1025.76 1025.84 1025.92 1025.96 1025.96 1026.12 1026.12
1018.28 1018.08 1017.68 1017.36 1017.52 1017.68 1017.76 1017.76 1017.80 1017.36 1017.32 1017.44 1017.72 1017.80 1017.68 1017.60 1017.68 1017.92 1018.36 1018.36 1018.52 1019.20 1019.56 1019.76 1020.04 1020.28 1020.60 1020.88 1021.08 1021.36 1021.64 1022.12 1022.52 1022.52 1022.56 1023.24 1023.64 1023.76 1024.20 1024.88 1025.28 1025.32 1025.08 1024.92 1025.36 1025.68 1025.68 1025.68 1025.84 1025.88 1025.92 1025.88
1018.96 1018.96 1018.88 1018.72 1018.56 1018.28 1018.24 1018.16 1018.08 1017.80 1017.72 1017.76 1017.96 1018.08 1018.04 1017.96 1017.84 1017.96 1018.24 1018.64 1018.76 1019.04 1019.36 1019.76 1020.04 1020.32 1020.60 1021.00 1021.32 1021.64 1021.92 1022.36 1022.64 1022.64 1022.80 1023.32 1023.84 1024.00 1023.96 1024.32 1025.04 1025.12 1024.88 1025.24 1024.88 1025.36 1025.48 1025.52 1025.52 1025.52 1025.64 1025.60
1019.36 1019.24 1019.16 1018.96 1018.68 1018.68 1018.60 1018.56 1018.56 1018.48 1018.24 1018.00 1018.00 1018.32 1018.44 1018.32 1018.20 1018.28 1018.44 1018.64 1018.96 1019.20 1019.44 1019.64 1019.96 1020.36 1020.76 1021.04 1021.40 1021.76 1022.12 1022.40 1022.60 1022.60 1022.72 1023.20 1023.36 1024.04 1024.32 1024.48 1025.08 1024.96 1024.52 1024.56 1025.52 1025.44 1025.60 1025.52 1025.52 1025.08 1025.48 1025.68
1019.72 1019.40 1019.20 1019.04 1018.92 1018.60 1018.56 1018.52 1018.48 1018.28 1018.20 1018.28 1018.28 1018.40 1018.64 1018.76 1018.80 1018.72 1018.76 1018.88 1018.92 1019.16 1019.44 1019.60 1019.92 1020.48 1020.84 1021.16 1021.44 1021.52 1021.88 1022.24 1022.48 1022.76 1023.00 1023.32 1023.56 1023.60 1024.04 1024.44 1024.80 1025.12 1024.96 1024.64 1024.88 1025.36 1025.24 1026.28 1026.40 1025.36 1024.40 1025.04
1019.88 1019.52 1019.20 1018.92 1018.72 1018.56 1018.28 1018.36 1018.32 1018.12 1018.24 1018.48 1018.64 1018.72 1018.84 1019.12 1019.24 1019.28 1019.24 1019.20 1019.20 1019.12 1019.28 1019.52 1019.80 1020.20 1020.68 1021.08 1021.40 1021.64 1021.80 1022.04 1022.12 1022.40 1022.64 1023.04 1023.44 1023.52 1023.44 1024.36 1024.72 1025.12 1025.28 1025.04 1024.40 1024.12 1025.84 1026.40 1026.28 1025.12 1024.56 1025.48
1020.20 1019.88 1019.64 1019.36 1019.08 1018.80 1018.80 1018.72 1018.72 1018.92 1018.96 1018.72 1018.68 1018.84 1019.24 1019.32 1019.44 1019.52 1019.60 1019.56 1019.44 1019.44 1019.48 1019.64 1019.84 1020.04 1020.40 1020.88 1021.28 1021.48 1021.64 1022.00 1022.36 1022.60 1022.84 1023.04 1023.04 1023.44 1023.56 1023.68 1024.60 1024.72 1025.28 1025.36 1025.00 1024.80 1024.44 1024.12 1023.20 1023.68 1025.12 1025.12
1020.56 1020.28 1020.08 1019.84 1019.72 1019.56 1019.40 1019.24 1019.20 1019.48 1019.44 1019.32 1019.28 1019.32 1019.36 1019.60 1019.72 1019.72 1019.68 1019.80 1019.76 1019.68 1019.68 1019.84 1020.08 1020.32 1020.52 1020.76 1021.04 1021.32 1021.64 1021.92 1022.08 1022.40 1022.64 1023.00 1023.12 1023.20 1023.56 1023.84 1024.04 1024.48 1024.84 1025.48 1025.16 1025.16 1025.36 1025.20 1025.24 1024.96 1024.28 1023.56
Wind_Speed
20 23 20 17 19 17 12 12 14 17 17 18 18 16 17 16 16 14 14 12 10 5 7 10 10 11 12 13 16 17 15 14 12 12 13 12 12 14 13 14 15 15 16 16 17 15 13 11 9 9 8 6
14 17 19 18 18 17 12 12 14 13 14 18 16 14 12 12 13 15 13 12 9 6 7 7 9 13 13 15 15 16 15 14 12 12 13 12 13 15 14 15 16 16 16 16 16 15 14 12 10 9 9 6
5 13 16 19 21 20 16 15 14 15 14 14 13 16 16 15 13 14 14 13 9 6 7 7 9 10 13 14 14 14 13 12 12 12 12 13 13 15 14 16 17 17 16 15 16 16 14 13 11 11 7 6
6 7 14 17 19 18 19 18 16 15 14 15 16 15 15 14 12 12 12 16 9 9 7 7 6 7 9 13 13 13 13 12 12 13 13 14 14 16 16 17 17 17 16 16 16 16 14 11 10 7 5 6
7 6 11 16 16 17 17 16 16 14 14 14 15 15 15 14 9 7 10 10 9 9 5 6 7 5 7 10 11 11 11 11 12 13 14 14 16 16 17 17 18 17 16 16 15 15 13 11 7 6 6 5
7 7 8 10 8 9 13 13 13 12 12 11 10 14 11 9 8 9 9 8 9 7 6 5 7 4 4 6 8 9 10 12 13 14 15 17 17 18 17 17 9 9 13 15 13 12 12 8 6 6 5 5
6 8 7 6 5 8 8 11 15 13 10 10 11 11 10 8 8 9 11 10 8 8 9 7 8 5 4 6 6 6 10 9 11 13 15 18 20 18 16 9 7 7 6 8 12 10 8 6 5 5 6 6
7 6 5 7 7 6 9 11 9 12 12 11 11 12 11 10 8 9 9 14 17 11 6 6 10 10 10 12 12 14 11 14 15 18 21 20 17 11 6 7 7 7 6 6 5 6 6 6 3 7 5 6
7 7 5 6 8 8 9 9 10 6 6 5 9 11 11 12 9 9 8 9 8 7 7 7 6 7 7 8 9 11 9 6 7 8 8 9 8 6 6 7 7 7 7 5 5 5 5 6 4 7 5 5
6 7 7 6 9 10 9 10 10 10 8 8 4 6 10 11 11 9 9 9 9 8 8 7 7 7 7 8 7 7 7 5 6 7 7 7 7 6 6 5 6 6 8 7 5 5 5 5 4 6 5 5
4 5 6 8 8 11 9 8 10 9 7 7 8 8 10 12 10 9 9 9 10 9 8 8 7 8 8 8 6 5 7 6 5 6 7 7 7 6 6 6 5 5 5 8 7 4 5 5 4 6 5 5
2 2 6 8 9 10 11 10 9 8 8 8 9 10 9 10 10 9 9 9 9 8 9 9 8 8 8 7 6 5 6 7 5 6 6 7 7 7 6 7 6 5 4 7 7 6 4 5 5 5 5 5
3 3 4 7 8 10 10 9 8 8 7 7 6 7 9 9 9 8 8 9 9 7 9 9 8 9 8 7 6 6 5 6 6 5 6 6 7 6 6 6 6 5 4 5 6 6 5 4 5 4 5 5
5 1 6 4 8 8 10 9 9 10 8 5 4 6 7 8 10 10 9 10 8 10 10 9 9 9 9 8 6 6 7 4 6 6 5 6 7 7 6 7 5 5 5 4 6 4 6 4 4 4 5 5
7 7 4 3 4 7 7 9 9 8 8 8 7 6 6 7 8 8 8 9 9 9 10 10 10 8 8 8 6 6 7 4 6 5 5 5 6 7 7 6 5 5 6 4 5 4 5 4 4 5 4 4
7 7 7 6 3 5 6 7 8 6 6 5 6 8 7 6 6 5 6 8 7 10 10 9 10 10 8 8 6 5 8 7 6 6 6 6 6 5 6 6 5 4 5 5 5 4 5 3 5 5 4 5
7 7 7 6 7 6 3 8 6 6 6 5 5 7 7 5 7 7 6 5 7 7 9 10 10 10 9 8 7 5 9 9 7 7 7 6 6 6 6 6 6 5 4 5 5 5 3 3 4 3 5 5
7 8 7 7 8 7 6 4 6 7 6 7 6 7 6 6 6 7 5 6 5 6 7 9 10 10 9 7 8 7 8 8 6 7 7 6 7 5 6 6 4 6 5 4 4 4 3 3 2 2 4 4
7 6 8 7 7 7 7 7 6 3 8 8 7 6 5 6 6 6 6 4 6 6 7 7 8 9 9 8 8 7 6 9 6 6 7 6 8 6 6 5 3 4 5 5 5 3 3 3 2 2 4 3
8 7 5 9 8 7 8 7 6 5 3 9 8 6 5 6 6 5 5 5 4 7 5 6 7 6 7 9 7 7 7 8 8 6 6 4 8 7 4 5 4 2 5 4 5 3 4 3 3 3 3 3
9 7 7 5 8 10 7 7 6 6 6 5 8 7 6 6 7 5 4 4 4 6 6 5 7 8 7 5 7 7 6 7 7 8 7 4 3 6 6 5 4 3 3 4 4 4 3 3 3 4 4 3
8 7 7 6 5 4 9 8 6 5 6 4 6 6 6 6 7 7 6 4 4 4 6 6 6 7 9 7 7 7 6 6 5 6 8 6 4 5 7 5 6 5 3 3 4 4 4 3 4 3 3 2
9 8 7 7 7 8 8 4 8 6 6 2 3 5 5 7 6 7 8 7 5 5 5 6 7 7 5 6 7 7 7 6 5 5 5 8 5 4 3 6 6 6 5 4 3 3 3 2 2 2 2 2
10 9 7 7 7 8 7 7 4 7 6 4 4 1 5 6 6 5 6 8 7 6 6 6 5 6 6 6 7 7 7 6 6 8 7 6 8 7 5 4 4 5 6 4 4 2 2 2 2 1 0 1
8 8 8 5 6 3 4 4 5 5 5 6 4 3 3 5 6 7 4 5 8 7 6 6 6 6 5 5 6 7 8 7 5 5 7 6 4 7 5 2 2 2 4 6 2 3 2 3 1 1 1 2
7 6 3 3 5 2 2 5 5 4 5 5 5 4 3 3 4 6 6 4 5 7 7 7 6 6 6 6 5 3 4 5 5 6 7 6 4 1 5 5 6 6 6 1 5 3 1 3 4 3 3 4
8 5 5 3 2 3 2 3 2 3 3 4 6 6 5 4 3 4 5 6 6 6 6 7 7 6 6 6 6 6 5 6 6 6 8 8 7 4 1 2 3 6 5 5 4 3 3 2 1 3 2 4
7 6 5 3 1 3 3 2 1 4 5 6 6 6 5 6 5 2 4 4 7 7 6 8 8 7 6 6 5 7 8 7 7 6 5 5 4 6 4 3 5 5 4 4 9 3 5 1 1 4 6 5
8 6 7 5 2 2 2 2 4 4 5 5 4 4 6 5 4 4 2 2 3 6 8 7 8 8 7 7 6 6 6 7 8 8 8 8 7 8 7 5 3 5 4 4 2 7 5 2 0 6 3 1
8 7 7 7 8 7 6 5 5 7 5 5 4 2 1 4 4 4 3 2 2 3 4 6 6 8 9 8 6 6 6 6 5 5 7 8 8 7 4 7 4 5 4 3 4 1 2 5 4 2 2 2
8 8 6 7 7 5 5 5 3 3 3 4 3 3 5 4 4 4 4 3 2 3 3 4 5 5 5 6 6 6 6 6 7 7 7 6 6 7 6 6 6 7 6 1 6 3 1 4 2 2 4 3
Wind_Direction
191 203 210 216 232 237 215 189 188 211 190 198 194 178 174 168 148 143 140 127 107 134 188 192 187 165 169 160 150 148 151 146 156 153 148 152 160 145 143 134 134 140 139 129 120 114 109 99 89 97 100 92
268 215 200 200 206 228 210 191 196 199 196 197 180 166 146 126 122 117 113 115 129 177 169 175 154 164 162 160 155 153 154 149 159 151 151 161 163 148 143 141 136 136 135 120 113 108 105 97 91 83 89 93
264 252 217 197 194 201 195 191 196 194 192 186 165 143 134 136 134 131 123 109 110 145 151 127 144 159 155 160 153 155 154 159 162 158 162 163 167 150 141 136 132 132 129 113 108 103 99 93 88 82 85 90
242 249 238 215 200 191 187 186 184 189 182 171 154 130 122 125 119 112 103 98 83 73 82 113 126 143 153 157 156 154 165 167 165 165 165 166 155 147 140 138 131 129 119 110 105 101 96 89 87 81 83 86
233 229 237 229 211 190 183 174 171 164 147 145 134 124 122 115 105 93 91 89 101 90 87 97 113 138 170 159 162 162 174 169 169 169 161 159 146 139 134 129 122 123 109 104 102 99 92 83 83 83 83 90
221 213 227 222 210 199 174 157 144 139 144 143 134 119 118 115 118 109 91 91 86 85 76 70 94 114 134 147 174 183 167 166 165 164 157 153 143 130 115 107 99 95 89 92 95 91 85 81 82 83 90 86
228 219 192 181 199 175 143 138 144 141 144 146 139 128 125 120 120 118 118 111 97 87 74 60 69 94 115 135 109 102 125 121 132 145 150 125 118 107 103 98 100 93 91 87 84 79 80 87 85 98 79 78
223 219 187 160 167 157 138 137 141 145 150 152 149 140 132 125 122 115 114 113 109 98 91 72 58 56 70 65 66 80 96 117 106 105 107 104 96 92 89 105 101 97 89 87 87 83 87 91 95 80 77 76
231 203 181 163 158 144 138 140 135 120 103 125 147 139 131 127 120 119 114 114 108 107 104 89 79 72 74 79 85 88 79 68 85 89 89 85 84 92 98 107 111 108 95 82 86 90 92 90 89 83 74 81
219 192 168 163 155 142 141 144 141 140 148 145 137 122 120 114 121 123 120 119 112 109 105 96 97 91 89 85 88 93 93 84 96 92 92 97 95 89 87 85 98 106 117 105 87 91 88 88 87 89 77 82
217 187 166 153 156 142 146 142 138 140 138 149 146 140 134 129 131 132 129 123 122 118 110 108 106 100 95 99 99 94 100 89 84 98 101 102 100 97 95 84 74 80 101 112 105 86 88 90 80 91 84 82
234 193 167 157 151 148 145 142 142 140 147 150 153 149 140 136 135 136 131 124 119 124 116 116 113 106 99 100 100 85 100 102 88 92 100 106 103 101 94 95 80 73 79 102 107 101 88 93 81 81 87 84
137 106 143 153 156 145 144 138 136 131 131 139 148 141 135 132 126 122 123 125 129 126 118 118 114 112 107 107 106 104 84 103 107 97 106 107 106 104 103 99 93 88 66 90 98 107 98 92 93 84 82 77
355 72 139 174 150 147 141 136 134 136 138 134 129 130 134 134 133 139 140 133 136 130 127 118 113 109 112 112 116 115 103 86 112 114 104 108 109 107 106 102 100 102 91 76 95 89 105 82 86 81 90 80
26 8 348 112 123 126 127 127 131 140 140 144 127 119 122 129 129 133 137 135 138 129 127 125 122 116 117 114 114 117 108 93 102 99 98 105 116 121 115 102 95 104 105 97 88 84 99 104 93 86 86 81
53 25 25 355 32 93 105 116 127 121 125 117 127 135 130 123 112 120 125 130 135 132 128 127 127 127 124 119 116 121 119 110 97 98 90 82 80 77 95 106 92 74 100 102 91 82 90 93 98 99 92 91
34 54 30 20 29 23 52 116 98 105 101 87 85 81 87 100 116 116 125 126 133 132 130 130 131 127 124 127 126 126 118 111 110 103 96 81 85 85 84 91 89 82 60 90 83 82 63 77 100 98 99 104
55 44 41 28 32 34 25 9 105 104 82 91 80 77 80 93 95 110 119 128 122 122 126 134 137 131 126 127 129 133 127 115 117 111 106 106 92 83 93 96 106 110 91 74 74 70 49 60 68 91 95 90
4 80 84 55 35 40 22 29 19 61 117 100 85 74 71 78 84 94 104 113 130 123 128 135 134 131 130 133 134 130 124 118 110 115 118 126 102 85 80 84 61 96 116 116 93 65 54 57 25 51 86 84
6 1 68 103 86 50 44 32 29 6 74 110 94 86 80 83 86 95 109 115 123 122 126 133 125 118 121 133 127 123 121 117 121 118 112 101 126 110 90 99 69 58 109 102 101 71 65 50 41 44 45 49
4 16 9 47 103 108 84 60 30 27 351 78 109 120 117 105 98 87 86 107 115 125 121 119 118 116 111 116 121 119 120 119 130 130 120 100 86 123 132 114 104 71 86 102 93 86 70 44 55 49 33 28
2 11 24 12 12 79 112 109 89 64 31 355 90 108 116 110 107 109 100 97 104 119 125 125 125 125 132 133 126 121 117 119 123 129 131 116 79 110 123 123 130 127 95 96 91 77 60 32 48 32 27 14
2 1 17 32 34 29 19 51 113 100 82 352 32 95 109 111 112 121 122 116 104 114 116 121 129 127 119 115 120 120 114 116 117 115 118 132 111 78 84 138 150 142 129 102 85 68 33 38 30 21 20 29
12 3 7 17 14 28 22 2 11 90 95 62 22 59 116 115 114 115 124 124 116 115 119 117 119 120 126 125 126 124 124 132 147 146 129 129 131 117 78 56 104 125 120 80 76 51 15 45 27 20 86 22
11 11 353 0 25 20 18 8 347 34 57 68 57 16 73 116 122 119 113 121 125 128 120 117 118 116 114 115 130 143 156 158 149 137 131 127 113 132 115 80 116 171 130 122 49 22 17 336 336 295 294 268
5 15 9 332 334 342 12 15 4 15 28 47 38 30 36 73 113 121 126 123 124 135 139 134 131 136 143 134 125 116 117 123 135 127 118 125 96 69 143 161 172 183 129 107 165 133 316 330 314 267 258 266
359 347 348 356 28 340 22 80 75 27 31 58 71 45 19 22 77 116 125 135 134 137 141 142 140 146 142 142 140 133 132 135 141 145 144 156 155 145 47 99 186 186 197 144 125 112 88 275 312 303 281 257
348 339 323 328 333 76 78 59 35 73 49 35 39 46 42 31 11 65 133 149 147 144 146 149 148 141 150 155 162 158 155 161 157 147 143 151 156 147 154 164 200 223 205 137 136 160 196 194 107 309 264 245
343 348 357 355 348 32 60 18 16 31 36 42 38 33 32 14 27 15 42 113 149 151 154 153 149 154 155 156 163 156 159 170 177 173 166 164 157 175 168 184 186 229 236 250 241 135 98 35 170 228 247 24
350 353 7 6 15 18 19 31 23 21 0 357 35 57 2 36 39 58 42 23 84 120 136 147 150 151 154 159 161 170 169 160 146 166 165 182 172 177 173 163 150 210 242 239 276 255 113 163 173 191 239 135
0 357 5 19 18 22 30 27 25 19 359 4 15 63 54 33 23 35 70 51 54 94 114 124 135 144 151 155 162 160 154 165 179 176 183 169 177 180 152 142 181 196 195 298 276 236 103 73 105 136 123 221